This demonstration page uses our WeatherBlox Daily Observations layout. Learn more.

Left ArrowRight Arrow

39.95238, -75.16362

Hourly Observations for August 10, 2022

Temp ( °F °C ) Dew Point ( °F °C ) Humidity (%) Winds ( mph kmh ) Pressure ( in mb ) Visibility ( mi km ) Precip ( " mm )
12:54 am 00:54 Mostly Cloudy 80 26.7 76 24.4 87 87 SW 5 7 29.99 1016 10 16 0.00 0.00
1:54 am 01:54 Cloudy 80 26.7 75 23.9 85 85 Calm 29.98 1015 10 16 0.00 0.00
2:54 am 02:54 Mostly Cloudy 80 26.7 75 23.9 85 85 WSW 6 9 30.00 1016 10 16 0.00 0.00
3:54 am 03:54 Mostly Cloudy 80 26.7 75 23.9 85 85 WNW 5 7 30.01 1016 10 16 0.00 0.00
4:54 am 04:54 Mostly Cloudy 79 26.1 74 23.3 85 85 NW 5 7 30.01 1016 10 16 0.00 0.00
5:54 am 05:54 Partly Cloudy 79 26.1 73 22.8 82 82 N 6 9 30.02 1017 10 16 0.00 0.00
6:54 am 06:54 Partly Cloudy 79 26.1 73 22.8 82 82 N 6 9 30.03 1017 10 16 0.00 0.00
7:54 am 07:54 Mostly Sunny 81 27.2 71 21.7 72 72 NE 7 11 30.05 1018 10 16 0.00 0.00
8:54 am 08:54 Mostly Sunny 83 28.3 69 20.6 63 63 ENE 8 13 30.06 1018 10 16 0.00 0.00
9:54 am 09:54 Mostly Sunny 86 30 70 21.1 59 59 ESE 5 7 30.06 1018 10 16 0.00 0.00
10:54 am 10:54 Mostly Sunny 87 30.6 69 20.6 55 55 VRB 5 7 30.06 1018 10 16 0.00 0.00
11:54 am 11:54 Partly Cloudy 89 31.7 69 20.6 52 52 S 6 9 30.06 1018 10 16 0.00 0.00
12:54 pm 12:54 Mostly Cloudy 90 32.2 69 20.6 50 50 WNW 7 11 30.04 1017 10 16 0.00 0.00
1:54 pm 13:54 Mostly Cloudy 89 31.7 68 20 50 50 VRB 6 9 30.02 1017 10 16 0.00 0.00
2:54 pm 14:54 Mostly Cloudy 91 32.8 69 20.6 49 49 W 8 13 30.01 1016 10 16 0.00 0.00
3:54 pm 15:54 Partly Cloudy 91 32.8 69 20.6 49 49 W 8 13 29.98 1015 10 16 0.00 0.00
4:54 pm 16:54 Mostly Cloudy 90 32.2 69 20.6 50 50 NW 6 9 29.98 1015 10 16 0.00 0.00
5:54 pm 17:54 Partly Cloudy 89 31.7 69 20.6 52 52 VRB 3 6 29.97 1015 10 16 0.00 0.00
6:54 pm 18:54 Partly Cloudy 89 31.7 69 20.6 52 52 SW 7 11 29.96 1015 10 16 0.00 0.00
7:54 pm 19:54 Mostly Cloudy 88 31.1 69 20.6 54 54 W 8 13 29.98 1015 10 16 0.00 0.00
8:54 pm 20:54 Mostly Cloudy 87 30.6 68 20 53 53 WNW 8 13 29.97 1015 10 16 0.00 0.00
9:54 pm 21:54 Cloudy 86 30 68 20 55 55 WNW 6 9 29.97 1015 10 16 0.00 0.00
10:54 pm 22:54 Cloudy 83 28.3 71 21.7 67 67 S 9 15 29.98 1015 10 16 0.00 0.00
11:54 pm 23:54 Cloudy 82 27.8 73 22.8 74 74 SW 6 9 29.97 1015 10 16 0.00 0.00

Powered by AerisWeather